This demonstration page uses our WeatherBlox Daily Observations layout. Learn more.

Left ArrowRight Arrow

Hourly Observations for April 25, 2020

Temp ( °F °C ) Dew Point ( °F °C ) Humidity (%) Winds ( mph kmh ) Pressure ( in mb ) Visibility ( mi km ) Precip ( " mm )
12:54 am 00:54 Clear 50 10 44 6.7 80 80 NNW 7 11 29.98 1015 10 16.0934 0 0
1:54 am 01:54 Clear 49 9.4 42 5.6 77 77 NNW 9 15 29.99 1016 10 16.0934 0 0
2:54 am 02:54 Clear 47 8.3 41 5 80 80 NW 7 11 29.99 1016 10 16.0934 0 0
3:54 am 03:54 Clear 42 5.6 38 3.3 85 85 Calm 30 1016 10 16.0934 0 0
4:54 am 04:54 Clear 45 7.2 40 4.4 83 83 NNW 5 7 30.01 1016 10 16.0934 0 0
5:54 am 05:54 Clear 38 3.3 36 2.2 93 93 N 5 7 30.01 1016 10 16.0934 0 0
6:54 am 06:54 Sunny 39 3.9 37 2.8 93 93 Calm 30.03 1017 7 11.26538 0 0
7:54 am 07:54 Sunny 45 7.2 41 5 86 86 Calm 30.04 1017 10 16.0934 0 0
8:54 am 08:54 Sunny 52 11.1 44 6.7 75 75 NNW 6 9 30.05 1018 10 16.0934 0 0
9:54 am 09:54 Sunny 58 14.4 46 7.8 65 65 NNE 5 7 30.05 1018 10 16.0934 0 0
10:54 am 10:54 Sunny 62 16.7 45 7.2 54 54 Calm 30.06 1018 10 16.0934 0 0
11:54 am 11:54 Mostly Sunny 64 17.8 46 7.8 52 52 NW 10 17 30.07 1018 10 16.0934 0 0
12:54 pm 12:54 Partly Cloudy 67 19.4 45 7.2 45 45 NNW 14 22 30.08 1019 10 16.0934 0 0
1:54 pm 13:54 Sunny 67 19.4 37 2.8 33 33 NNW 10 17 30.05 1018 10 16.0934 0.001 0.001
2:54 pm 14:54 Sunny 68 20 37 2.8 32 32 NW 14 22 30.04 1017 10 16.0934 0 0
3:54 pm 15:54 Partly Cloudy 68 20 38 3.3 33 33 NW 15 24 30.03 1017 10 16.0934 0 0
4:54 pm 16:54 Mostly Sunny 68 20 37 2.8 32 32 WNW 14 22 30.02 1017 10 16.0934 0 0
5:31 pm 17:31 Mostly Cloudy 65 18.3 39 3.9 39 39 N 14 22 30 1016 10 16.0934 0 0
5:54 pm 17:54 Partly Cloudy 65 18.3 40 4.4 40 40 NNE 9 15 30.03 1017 10 16.0934 0 0
6:54 pm 18:54 Mostly Sunny 64 17.8 38 3.3 38 38 W 3 6 30.03 1017 10 16.0934 0 0
7:44 pm 19:44 Mostly Cloudy with Light Rain 59 15 43 6.1 56 56 NE 20 31 30.05 1018 10 16.0934 0.001 0.001
7:54 pm 19:54 Mostly Cloudy 59 15 42 5.6 54 54 E 14 22 30.06 1018 10 16.0934 0.001 0.001
8:54 pm 20:54 Clear 56 13.3 44 6.7 65 65 E 8 13 30.09 1019 10 16.0934 0 0
9:54 pm 21:54 Clear 51 10.6 43 6.1 74 74 SE 6 9 30.11 1020 10 16.0934 0 0
10:54 pm 22:54 Clear 53 11.7 43 6.1 69 69 SSW 3 6 30.11 1020 10 16.0934 0 0
11:54 pm 23:54 Clear 51 10.6 43 6.1 74 74 S 5 7 30.12 1020 10 16.0934 0 0

Powered by AerisWeather